"Pseudo-MPEC" for P10HGt1

Created 2018 Jun 18 9:18:13 UT using Find_Orb

Click here for an explanation of pseudo-MPECs

 
 Astrometry: 
     P10HGt1  C2018 06 06-=Astrometryg5^PCsaTGymQ(kWq`0Y=bqE!RAAWq*3MQ2@\nf9pF51
     P10HGt1  C2018 06 06]SrngidO:Et;E4gk8@uKG7h+T/Uk'_)q$Y1I-'H4;i6`\05-X;EWF51
     P10HGt1  C2018 06 06*.@`y\g9f8qy$t,+B@f0`Huu/-jT-!9;Ayn#f-CYXB]ROhuIh;4(F51
     P10HGt1 KC2018 06 07c/#rG'#H@rCsfF9NDr,fU_;w4??OSGlb$XKy[MsSpl?q`G;XT'hm291
     P10HGt1 KC2018 06 07we[+0oRV11ti\tJdm#Z:v+DFXR(FE%fZAqDj#!4NjKHn5pqIdGUd291
     P10HGt1 KC2018 06 07k!vw)wvbcV]4M7(L)LQ+@f!kie9D)^6]#2F@i]TC1kxmq'tH2:hh474
     P10HGt1 KC2018 06 07`X-SV7kV=':t:::]Qn_X01_*YLx:^ZGk6^]GUd;OX/C;`7v#QT3b474
     P10HGt1 KC2018 06 07nqu@oQ4.1[yt\I)!3YMVO3H%6y3#;'tj!DB5R-K+/EB2NCPaV#r+474
     P10HGt1  C2018 06 08.28393 16 54 23.64 -17 11 38.8          20.7 GUNEOCPI52
     P10HGt1  C2018 06 08.28724 16 54 23.29 -17 11 33.1          22.0 GUNEOCPI52
     P10HGt1  C2018 06 08.29055 16 54 23.02 -17 11 27.3          21.9 GUNEOCPI52
     P10HGt1  C2018 06 09k@0'?x_4%YX[Wp/bAredacted;;K@]^oZh06F(B7H,rA^W/dkBEHV06
     P10HGt1  C2018 06 09voX^kM01dHD6k4\M0sPqlKUI5?nW=ShO8YHj@pK`pRCCcpsZby5fV06
     P10HGt1  C2018 06 094/Zk'QDo6((8sbx@Inslk\?%+ER:Ywv1uk72NtJGv3y=6G6\8LxWV06
     P10HGt1  C2018 06 10BWOM'B6XGTc8f72j8cW7Zm^JOQvN.r+8EbsAxR_y,#7L:$SgNDGAV06
     P10HGt1  C2018 06 10]KK4GSvs84.:R`SQFVCrqGh$hHi8_:cs;p4T^,/lFa,TmR06$[7mV06
     P10HGt1  C2018 06 109YcH!!uW4EEi)QRvRm(,:5p*9RA`EJa%cD8OX]t!fL-X!ydo4ZMfV06
     P10HGt1  C2018 06 10u42v^MR=6q;(NeuO,!7Yl!wa5Wacx]wd357e,(6H0kvPf%6g8.:wV06
     P10HGt1  C2018 06 11JOT1l,HCp52bU?jkgT\c^BtC_3CG'@qVO]#5_F,uYHPx8u?F2\+4V06
     P10HGt1  C2018 06 11$YX=lUeMP6*%Ma:3-.@H^:Y7;ksFZx%lseeoLGZywK]VxDKe,KsLV06
     P10HGt1  C2018 06 11N1EBE\]jV)J.c#i8BocL;$w'0T7*f\M10!Nn\1v:nRBdojd'AkkwV06
     P10HGt1  C2018 06 11((@UQ7?,e3fHD=bx1nAucw?MX`sJ^M,fm%ux:^'(K)hE%S9OVwH^V06
     P10HGt1  C2018 06 12.30530 16 48 13.03 -15 10 21.2                UNEOCPI52
     P10HGt1  C2018 06 12.30944 16 48 12.55 -15 10 13.0          20.2 GUNEOCPI52
     P10HGt1  C2018 06 12.31358 16 48 12.22 -15 10 06.6          21.6 GUNEOCPI52
     P10HGt1 KC2018 06 13V/1Zm^@3+Eb)aAC^lLe4LjhejqvA?4w(E1O]RBw$K9[l\?9b^'4N291
     P10HGt1 KC2018 06 13ITrtP:nkv=#/Bv,GGy(m5!`x`h2hk@afJUZh0+W6_fY[M\Lb*b=j291
     P10HGt1 KC2018 06 13:#2F$G-Dq$:4Et%_`^@gW:ZaVw+pUvUvCb@oXx/Nf.km=)h*!ED[291
     P10HGt1  C2018 06 15`3kJBcGw9j93_K1HyRWCJs'l#(7QVQw'M`NJTr=g2hSZg+kC(/.@F51
     P10HGt1  C2018 06 15lv0+R;(YhCa8wZUlCqdr.+h$nPx`*tJ6Mer`S;HEl(T1NQ\._$DHF51
     P10HGt1  C2018 06 15(ly'-]UWs(Cliva7B.sP?G(!/D:jH88*_kelOA##FHlw0]sNEOCPF51

Station data:
(291) LPL/Spacewatch II  (N31.961669 W111.599905)  US/Arizona.  Observers J.
   V. Scotti, R. S. McMillan. 1.8-m f/2.7 reflector + CCD.
(474) Mount John Observatory, Lake Tekapo  (S43.987388 E170.464960)  New
   Zealand.  Observers A. C. Gilmore, P. M. Kilmartin. Measurer P. M.
   Kilmartin. 1.0-m f/7.7 reflector + CCD.
(F51) Pan-STARRS 1, Haleakala  (N20.707235 W156.255910)  US/Hawaii.
   Observers N. Primak, A. Schultz, S. Watters, J. Thiel, T. Goggia. Measurer
   PS1 Science Consortium. 1.8-m Ritchey-Chrétien + CCD.
(I52) Steward Observatory, Mt. Lemmon Station  (N32.442547 W110.788920)
   US/Arizona.  Observers B. M. Africano, E. J. Christensen, D. C. Fuls, A.
   R. Gibbs, A. D. Grauer, J. A. Johnson, R. A. Kowalski, S. M. Larson, G. J.
   Leonard, R. L. Seaman, F. C. Shelly. 1.0-m reflector + CCD.
(V06) Catalina Sky Survey-Kuiper  (N32.416847 W110.732550)  US/Arizona.
   Observers B. M. Africano, E. J. Christensen, D. C. Fuls, A. R. Gibbs, A.
   D. Grauer, J. A. Johnson, R. A. Kowalski, S. M. Larson, G. J. Leonard, R.
   L. Seaman, F. C. Shelly. 1.55-m reflector + CCD.

Orbital elements:  P10HGt1
   Perihelion 2018 Nov 28.244284 +/- 3.71 TT =  5:51:46 (JD 2458450.744284)
Epoch 2018 Jun 15.0 TT = JDT 2458284.5   Earth MOID: 0.9923   AutoNEOCP
M 310.60311 +/- 2.1                 (J2000 ecliptic)
n   0.29713435 +/- 0.0073           Peri.   72.87425 +/- 2.2
a   2.22416740 +/- 0.0364           Node   252.63551 +/- 0.051
e   0.1709857 +/- 0.00427           Incl.   40.94922 +/- 0.8
P   3.32                   H 19.7   G  0.15   U  9.4  
q 1.84386658 +/- 0.0222    Q 2.60446823 +/- 0.0557
From 31 observations 2018 June 6-15; mean residual 0".31
Residuals in arcseconds: 
180606 F51  .05-  .12+    180609 V06  .29+  .04+    180612 I52  .32+  .21-    
180606 F51  .04+  .10-    180609 V06  .18+  .38+    180612 I52  1.0-  .52+    
180606 F51  .21-  .02+    180609 V06  .12+  .64-    180612 I52  .18-  .55-    
180607 291  .24-  .35+    180610 V06  .29-  .13+    180613 291  .02-  .19-    
180607 291  .25-  .13-    180610 V06  .04+  .16+    180613 291  .19+  .25+    
180607 474  .03+  .25-    180610 V06  .36+  .10-    180613 291  .19-  .01-    
180607 474  .39-  .15+    180610 V06  .24+  .75+    180615 F51  .01+  .08-    
180607 474  .40+  .74-    180611 V06  .35+  .42+    180615 F51  .08+  .01+    
180608 I52  .26+  .40+    180611 V06  .07+  .02-    180615 F51  .05+  .00     
180608 I52  .17-  .11+    180611 V06  .06-  .14+    
180608 I52  .54+  .09-    180611 V06  .09+  .51-    

Ephemerides (geocentric):
Date (UTC) HH   RA              Dec         delta   r     elong  mag " sig PA
---- -- -- --  -------------   -----------  ------ ------ -----  --- ---- ---
2018 06 18 09  16 39 25.076   -12 10 53.49  1.0280 2.0147 160.6 21.9  1.1 114
2018 06 18 10  16 39 21.629   -12 09 41.30  1.0280 2.0146 160.5 21.9  1.2 114
2018 06 18 11  16 39 18.186   -12 08 29.14  1.0281 2.0145 160.5 21.9  1.2 114
2018 06 18 12  16 39 14.744   -12 07 17.00  1.0282 2.0144 160.4 21.9  1.2 115
2018 06 18 13  16 39 11.306   -12 06 04.90  1.0283 2.0144 160.3 21.9  1.2 115
2018 06 18 14  16 39 07.870   -12 04 52.82  1.0284 2.0143 160.3 21.9  1.3 115
2018 06 18 15  16 39 04.438   -12 03 40.77  1.0285 2.0142 160.2 21.9  1.3 115
2018 06 18 16  16 39 01.008   -12 02 28.75  1.0286 2.0141 160.2 21.9  1.3 115
2018 06 18 17  16 38 57.580   -12 01 16.76  1.0287 2.0141 160.1 21.9  1.4 115
2018 06 18 18  16 38 54.156   -12 00 04.80  1.0288 2.0140 160.1 21.9  1.4 115
2018 06 18 19  16 38 50.734   -11 58 52.87  1.0289 2.0139 160.0 21.9  1.4 116
2018 06 18 20  16 38 47.316   -11 57 40.97  1.0290 2.0138 159.9 21.9  1.4 116
2018 06 18 21  16 38 43.900   -11 56 29.10  1.0291 2.0138 159.9 21.9  1.5 116
2018 06 18 22  16 38 40.487   -11 55 17.26  1.0292 2.0137 159.8 21.9  1.5 116
2018 06 18 23  16 38 37.077   -11 54 05.44  1.0293 2.0136 159.8 21.9  1.5 116
2018 06 19 00  16 38 33.669   -11 52 53.66  1.0294 2.0135 159.7 21.9  1.6 116
2018 06 19 01  16 38 30.265   -11 51 41.91  1.0296 2.0135 159.6 22.0  1.6 116
2018 06 19 02  16 38 26.863   -11 50 30.19  1.0297 2.0134 159.6 22.0  1.6 117
2018 06 19 03  16 38 23.465   -11 49 18.50  1.0298 2.0133 159.5 22.0  1.6 117
2018 06 19 04  16 38 20.069   -11 48 06.84  1.0299 2.0132 159.5 22.0  1.7 117
2018 06 19 05  16 38 16.676   -11 46 55.21  1.0300 2.0132 159.4 22.0  1.7 117
2018 06 19 06  16 38 13.286   -11 45 43.61  1.0301 2.0131 159.4 22.0  1.7 117
2018 06 19 07  16 38 09.899   -11 44 32.04  1.0302 2.0130 159.3 22.0  1.8 117
2018 06 19 08  16 38 06.515   -11 43 20.50  1.0303 2.0129 159.2 22.0  1.8 117
2018 06 19 09  16 38 03.133   -11 42 09.00  1.0304 2.0128 159.2 22.0  1.8 117
2018 06 19 10  16 37 59.755   -11 40 57.52  1.0305 2.0128 159.1 22.0  1.9 117
2018 06 19 11  16 37 56.380   -11 39 46.08  1.0306 2.0127 159.1 22.0  1.9 118
2018 06 19 12  16 37 53.007   -11 38 34.66  1.0307 2.0126 159.0 22.0  1.9 118
2018 06 19 13  16 37 49.638   -11 37 23.28  1.0308 2.0125 159.0 22.0  2.0 118
2018 06 19 14  16 37 46.271   -11 36 11.93  1.0309 2.0125 158.9 22.0  2.0 118
2018 06 19 15  16 37 42.907   -11 35 00.61  1.0311 2.0124 158.8 22.0  2.1 118
2018 06 19 16  16 37 39.546   -11 33 49.32  1.0312 2.0123 158.8 22.0  2.1 118
2018 06 19 17  16 37 36.189   -11 32 38.07  1.0313 2.0122 158.7 22.0  2.1 118
2018 06 19 18  16 37 32.834   -11 31 26.85  1.0314 2.0122 158.7 22.0  2.2 118
2018 06 19 19  16 37 29.482   -11 30 15.65  1.0315 2.0121 158.6 22.0  2.2 118
2018 06 19 20  16 37 26.133   -11 29 04.50  1.0316 2.0120 158.6 22.0  2.2 118
2018 06 19 21  16 37 22.787   -11 27 53.37  1.0317 2.0119 158.5 22.0  2.3 118
2018 06 19 22  16 37 19.444   -11 26 42.27  1.0319 2.0119 158.4 22.0  2.3 118
2018 06 19 23  16 37 16.105   -11 25 31.21  1.0320 2.0118 158.4 22.0  2.4 119
2018 06 20 00  16 37 12.768   -11 24 20.18  1.0321 2.0117 158.3 22.0  2.4 119
2018 06 20 01  16 37 09.434   -11 23 09.18  1.0322 2.0116 158.3 22.0  2.4 119
2018 06 20 02  16 37 06.103   -11 21 58.22  1.0323 2.0116 158.2 22.0  2.5 119
2018 06 20 03  16 37 02.775   -11 20 47.29  1.0324 2.0115 158.2 22.0  2.5 119
2018 06 20 04  16 36 59.450   -11 19 36.39  1.0326 2.0114 158.1 22.0  2.5 119
2018 06 20 05  16 36 56.128   -11 18 25.52  1.0327 2.0113 158.0 22.0  2.6 119
2018 06 20 06  16 36 52.810   -11 17 14.69  1.0328 2.0113 158.0 22.0  2.6 119
2018 06 20 07  16 36 49.494   -11 16 03.89  1.0329 2.0112 157.9 22.0  2.7 119
2018 06 20 08  16 36 46.181   -11 14 53.13  1.0330 2.0111 157.9 22.0  2.7 119